This demonstration page uses our WeatherBlox Daily Observations layout. Learn more.

Left ArrowRight Arrow

41.86663, -103.66717

Hourly Observations for July 11, 2019

Temp ( °F °C ) Dew Point ( °F °C ) Humidity (%) Winds ( mph kmh ) Pressure ( in mb ) Visibility ( mi km ) Precip ( " mm )
12:53 am 00:53 Clear 61 16 N/A N/A ESE 7 11 30.14 1021 10 16 N/A
1:53 am 01:53 Clear 61 16 N/A N/A ESE 7 11 30.12 1020 10 16 N/A
2:53 am 02:53 Clear 61 16 N/A N/A E 8 13 30.10 1019 10 16 N/A
3:53 am 03:53 Clear 61 16 N/A N/A E 8 13 30.08 1019 10 16 N/A
4:53 am 04:53 Clear 59 15 N/A N/A E 8 13 30.07 1018 10 16 N/A
5:53 am 05:53 Sunny 59 15 N/A N/A E 7 11 30.06 1018 10 16 N/A
6:53 am 06:53 Sunny 63 17 N/A N/A ESE 8 13 30.06 1018 10 16 N/A
7:53 am 07:53 Sunny 66 19 N/A N/A ESE 9 15 30.05 1018 10 16 N/A
8:53 am 08:53 Sunny 72 22 N/A N/A SE 10 17 30.05 1018 10 16 N/A
9:53 am 09:53 Sunny 75 24 N/A N/A SE 10 17 30.03 1017 10 16 N/A
10:53 am 10:53 Sunny 82 28 N/A N/A VRB 5 7 30.00 1016 10 16 N/A
11:53 am 11:53 Sunny 86 30 N/A N/A E 5 7 29.97 1015 10 16 N/A
12:53 pm 12:53 Sunny 91 33 N/A N/A VRB 3 6 29.94 1014 10 16 N/A
1:53 pm 13:53 Sunny 97 36 N/A N/A NW 9 15 29.91 1013 10 16 N/A
2:53 pm 14:53 Sunny 99 37 N/A N/A W 7 11 29.89 1012 10 16 N/A
3:53 pm 15:53 Sunny 99 37 N/A N/A NW 7 11 29.87 1012 10 16 N/A
4:53 pm 16:53 Sunny 95 35 N/A N/A NW 8 13 29.87 1012 10 16 N/A
5:53 pm 17:53 Sunny 97 36 N/A N/A NW 6 9 29.85 1011 10 16 N/A
6:53 pm 18:53 Sunny 93 34 N/A N/A N N/A 29.84 1011 10 16 N/A
7:53 pm 19:53 Sunny 88 31 N/A N/A NNE 3 6 29.86 1011 10 16 N/A
8:53 pm 20:53 Clear 79 26 N/A N/A ENE 8 13 29.87 1012 10 16 N/A
9:53 pm 21:53 Clear 75 24 N/A N/A NE 8 13 29.87 1012 10 16 N/A
10:53 pm 22:53 Clear 73 23 N/A N/A N N/A 29.87 1012 10 16 N/A
11:53 pm 23:53 Clear 70 21 N/A N/A E 5 7 29.88 1012 10 16 N/A

Powered by AerisWeather